{"data":{"norad_id":59217,"epoch":"2026-09-20T10:52:08.235840Z","epoch_age_seconds":162879,"freshness":"FRESH","line1":"1 59217U 24046S   26263.45287310  .00002086  00000+0  72882-4 0  9995","line2":"2 59217  53.1624 326.0741 0001175  69.7487 290.3642 15.34386350142927","mean_motion":15.3438635,"eccentricity":0.0001175,"inclination_deg":53.1624,"raan_deg":326.0741,"arg_perigee_deg":69.7487,"mean_anomaly_deg":290.3642,"bstar":7.2882e-5,"rev_number":14292,"period_min":93.848592957048,"perigee_km":461.94000768916,"apogee_km":463.54761467979,"semimajor_km":6840.8808111845,"source":"CELESTRAK","updated_at":"2026-09-21T09:00:34.071875Z"}}